RYR088 LPPT-LPMA

Flight info

Callsign RYR088
Flight time 1h 33m
Altitude 33000
Route ULVOT DCT GALPA DCT RAKUN
Aircraft B738/M-SDE2E3FGHIRWXY/LB1

Departure

Time 2026-05-05 07:36
Airport Lisbon Humberto Delgado Airport (LPPT)

Arrival

Time 2026-05-05 09:09
Airport Cristiano Ronaldo International Airport (LPMA)
Time Latitude Longitude Altitude Speed Heading
2026-05-05 06:55 38.76478 -9.13612 347 ft 0 kts 168°
2026-05-05 07:26 38.76478 -9.13615 347 ft 4 kts 189°
2026-05-05 07:26 38.76482 -9.13618 347 ft 2 kts 136°
2026-05-05 07:26 38.76499 -9.13637 357 ft 4 kts 148°
2026-05-05 07:26 38.76523 -9.13650 351 ft 4 kts 178°
2026-05-05 07:27 38.76547 -9.13643 349 ft 4 kts 221°
2026-05-05 07:27 38.76558 -9.13622 352 ft 1 kts 258°
2026-05-05 07:27 38.76558 -9.13621 352 ft 1 kts 258°
2026-05-05 07:31 38.76558 -9.13622 351 ft 0 kts 258°
2026-05-05 07:31 38.76558 -9.13642 351 ft 4 kts 278°
2026-05-05 07:32 38.76596 -9.13671 348 ft 9 kts 339°
2026-05-05 07:32 38.76613 -9.13747 349 ft 10 kts 266°
2026-05-05 07:32 38.76598 -9.13830 352 ft 10 kts 258°
2026-05-05 07:32 38.76585 -9.13913 354 ft 9 kts 258°
2026-05-05 07:33 38.76570 -9.13993 355 ft 9 kts 257°
2026-05-05 07:33 38.76557 -9.14072 350 ft 9 kts 258°
2026-05-05 07:33 38.76565 -9.14150 346 ft 10 kts 293°
2026-05-05 07:33 38.76595 -9.14239 337 ft 12 kts 294°
2026-05-05 07:34 38.76629 -9.14339 333 ft 13 kts 294°
2026-05-05 07:34 38.76670 -9.14374 335 ft 4 kts 15°
2026-05-05 07:34 38.76679 -9.14370 335 ft 0 kts 22°
2026-05-05 07:35 38.76711 -9.14352 335 ft 24 kts 24°
2026-05-05 07:35 38.77093 -9.14151 358 ft 93 kts 23°
2026-05-05 07:35 38.77883 -9.13728 366 ft 151 kts 22°
2026-05-05 07:35 38.78993 -9.13177 560 ft 184 kts 19°
2026-05-05 07:36 38.80048 -9.12557 1574 ft 166 kts 24°
2026-05-05 07:36 38.81042 -9.11917 2556 ft 161 kts 23°
2026-05-05 07:36 38.82128 -9.11209 2826 ft 194 kts 24°
2026-05-05 07:36 38.83361 -9.10398 3229 ft 205 kts 24°
2026-05-05 07:37 38.84631 -9.09568 3876 ft 207 kts 24°
2026-05-05 07:37 38.85982 -9.08692 4120 ft 230 kts 24°
2026-05-05 07:37 38.87340 -9.07407 4332 ft 261 kts 52°
2026-05-05 07:37 38.87885 -9.05167 5214 ft 268 kts 85°
2026-05-05 07:38 38.87829 -9.02787 6212 ft 267 kts 89°
2026-05-05 07:38 38.87464 -9.00371 6709 ft 289 kts 112°
2026-05-05 07:38 38.86285 -8.98301 7485 ft 293 kts 140°
2026-05-05 07:38 38.84491 -8.97067 8310 ft 296 kts 166°
2026-05-05 07:39 38.82445 -8.96874 9042 ft 297 kts 191°
2026-05-05 07:39 38.80473 -8.97634 9810 ft 296 kts 205°
2026-05-05 07:39 38.78553 -8.98651 10471 ft 303 kts 207°
2026-05-05 07:39 38.76545 -8.99768 10667 ft 326 kts 207°
2026-05-05 07:40 38.74390 -9.00973 10838 ft 349 kts 207°
2026-05-05 07:40 38.72146 -9.02211 11250 ft 361 kts 207°
2026-05-05 07:40 38.69815 -9.03478 11936 ft 365 kts 207°
2026-05-05 07:40 38.67461 -9.04746 12712 ft 366 kts 207°
2026-05-05 07:41 38.65095 -9.06013 13455 ft 369 kts 207°
2026-05-05 07:41 38.62717 -9.07284 14143 ft 372 kts 207°
2026-05-05 07:41 38.61128 -9.08133 14567 ft 374 kts 207°
2026-05-05 07:41 38.57931 -9.09838 15417 ft 378 kts 208°
2026-05-05 07:42 38.55483 -9.11143 16048 ft 381 kts 208°
2026-05-05 07:42 38.53034 -9.12448 16684 ft 383 kts 208°
2026-05-05 07:42 38.51395 -9.13321 17108 ft 385 kts 208°
2026-05-05 07:42 38.48910 -9.14643 17744 ft 388 kts 208°
2026-05-05 07:43 38.46409 -9.15974 18359 ft 391 kts 208°
2026-05-05 07:43 38.43880 -9.17317 18903 ft 393 kts 208°
2026-05-05 07:43 38.41404 -9.18788 19419 ft 390 kts 217°
2026-05-05 07:43 38.39216 -9.20793 19952 ft 387 kts 223°
2026-05-05 07:44 38.37089 -9.22920 20475 ft 389 kts 223°
2026-05-05 07:44 38.34985 -9.25049 20961 ft 392 kts 223°
2026-05-05 07:44 38.32835 -9.27208 21460 ft 395 kts 223°
2026-05-05 07:44 38.30664 -9.29364 21951 ft 397 kts 223°
2026-05-05 07:45 38.28468 -9.31523 22419 ft 400 kts 223°
2026-05-05 07:45 38.26247 -9.33693 22912 ft 402 kts 223°
2026-05-05 07:45 38.24016 -9.35863 23387 ft 404 kts 223°
2026-05-05 07:45 38.21798 -9.38016 23829 ft 406 kts 223°
2026-05-05 07:46 38.19544 -9.40201 24236 ft 408 kts 223°
2026-05-05 07:46 38.17282 -9.42391 24661 ft 408 kts 223°
2026-05-05 07:46 38.15017 -9.44584 25067 ft 409 kts 223°
2026-05-05 07:46 38.12741 -9.46785 25459 ft 410 kts 223°
2026-05-05 07:47 38.10466 -9.48986 25828 ft 412 kts 223°
2026-05-05 07:47 38.08185 -9.51190 26190 ft 413 kts 223°
2026-05-05 07:47 38.05915 -9.53382 26554 ft 414 kts 223°
2026-05-05 07:47 38.03617 -9.55599 26905 ft 416 kts 223°
2026-05-05 07:48 38.01307 -9.57826 27234 ft 418 kts 223°
2026-05-05 07:48 37.98990 -9.60077 27552 ft 419 kts 224°
2026-05-05 07:48 37.96739 -9.62415 27869 ft 419 kts 226°
2026-05-05 07:48 37.94506 -9.64822 28199 ft 420 kts 226°
2026-05-05 07:49 37.92288 -9.67232 28510 ft 421 kts 226°
2026-05-05 07:49 37.90054 -9.69651 28819 ft 423 kts 226°
2026-05-05 07:49 37.87813 -9.72061 29231 ft 422 kts 226°
2026-05-05 07:49 37.85605 -9.74420 29738 ft 418 kts 226°
2026-05-05 07:50 37.83386 -9.76780 30239 ft 415 kts 226°
2026-05-05 07:50 37.81183 -9.79119 30602 ft 413 kts 226°
2026-05-05 07:50 37.78982 -9.81455 30905 ft 413 kts 226°
2026-05-05 07:50 37.76786 -9.83784 31213 ft 412 kts 226°
2026-05-05 07:51 37.74590 -9.86111 31575 ft 411 kts 226°
2026-05-05 07:51 37.72404 -9.88425 31926 ft 409 kts 226°
2026-05-05 07:51 37.70215 -9.90743 32236 ft 408 kts 226°
2026-05-05 07:51 37.68037 -9.93046 32537 ft 407 kts 226°
2026-05-05 07:52 37.65865 -9.95341 32858 ft 406 kts 226°
2026-05-05 07:52 37.63701 -9.97624 33150 ft 406 kts 226°
2026-05-05 07:52 37.59838 -10.02743 33139 ft 404 kts 236°
2026-05-05 07:53 37.56383 -10.08285 33132 ft 398 kts 236°
2026-05-05 07:53 37.52992 -10.13728 33146 ft 396 kts 236°
2026-05-05 07:54 37.49561 -10.19166 33138 ft 396 kts 236°
2026-05-05 07:54 37.46114 -10.24585 33141 ft 397 kts 236°
2026-05-05 07:55 37.42649 -10.30009 33141 ft 397 kts 235°
2026-05-05 07:55 37.39182 -10.35423 33145 ft 398 kts 235°
2026-05-05 07:56 37.35716 -10.40829 33144 ft 399 kts 235°
2026-05-05 07:56 37.32229 -10.46257 33144 ft 400 kts 235°
2026-05-05 07:57 37.28725 -10.51704 33142 ft 401 kts 235°
2026-05-05 07:57 37.25211 -10.57157 33142 ft 401 kts 234°
2026-05-05 07:58 37.21692 -10.62610 33146 ft 402 kts 234°
2026-05-05 07:58 37.18184 -10.68035 33144 ft 402 kts 234°
2026-05-05 07:59 37.14645 -10.73500 33147 ft 403 kts 234°
2026-05-05 07:59 37.11105 -10.78957 33149 ft 403 kts 234°
2026-05-05 08:00 37.07581 -10.84380 33145 ft 403 kts 234°
2026-05-05 08:00 37.04034 -10.89831 33149 ft 404 kts 234°
2026-05-05 08:01 37.00479 -10.95285 33150 ft 404 kts 234°
2026-05-05 08:01 36.96916 -11.00742 33146 ft 405 kts 234°
2026-05-05 08:02 36.93372 -11.06162 33149 ft 405 kts 234°
2026-05-05 08:02 36.89798 -11.11619 33154 ft 406 kts 234°
2026-05-05 08:03 36.86209 -11.17089 33156 ft 407 kts 234°
2026-05-05 08:03 36.82602 -11.22577 33151 ft 408 kts 234°
2026-05-05 08:04 36.79016 -11.28025 33154 ft 409 kts 234°
2026-05-05 08:04 36.75394 -11.33518 33157 ft 410 kts 234°
2026-05-05 08:05 36.71758 -11.39024 33152 ft 411 kts 233°
2026-05-05 08:05 36.68118 -11.44527 33157 ft 411 kts 233°
2026-05-05 08:06 36.64493 -11.49997 33154 ft 412 kts 233°
2026-05-05 08:06 36.60836 -11.55507 33154 ft 412 kts 233°
2026-05-05 08:07 36.57186 -11.60997 33154 ft 412 kts 233°
2026-05-05 08:07 36.53545 -11.66465 33156 ft 411 kts 233°
2026-05-05 08:08 36.49888 -11.71948 33156 ft 411 kts 233°
2026-05-05 08:08 36.46232 -11.77421 33166 ft 411 kts 233°
2026-05-05 08:09 36.42600 -11.82849 33167 ft 411 kts 233°
2026-05-05 08:09 36.38942 -11.88307 33153 ft 410 kts 233°
2026-05-05 08:10 36.35307 -11.93723 33151 ft 410 kts 233°
2026-05-05 08:10 36.31647 -11.99166 33162 ft 410 kts 233°
2026-05-05 08:11 36.27992 -12.04594 33162 ft 409 kts 233°
2026-05-05 08:11 36.24340 -12.10007 33153 ft 409 kts 233°
2026-05-05 08:12 36.20710 -12.15380 33153 ft 409 kts 233°
2026-05-05 08:12 36.17054 -12.20783 33161 ft 409 kts 233°
2026-05-05 08:13 36.13398 -12.26178 33154 ft 409 kts 233°
2026-05-05 08:13 36.09733 -12.31576 33156 ft 409 kts 233°
2026-05-05 08:14 36.06065 -12.36972 33158 ft 409 kts 233°
2026-05-05 08:14 36.02422 -12.42321 33157 ft 409 kts 232°
2026-05-05 08:15 35.98740 -12.47719 33156 ft 409 kts 232°
2026-05-05 08:15 35.95087 -12.53066 33157 ft 410 kts 232°
2026-05-05 08:16 35.91403 -12.58450 33159 ft 410 kts 232°
2026-05-05 08:16 35.87722 -12.63821 33160 ft 410 kts 232°
2026-05-05 08:17 35.84031 -12.69198 33160 ft 410 kts 232°
2026-05-05 08:17 35.80334 -12.74576 33161 ft 411 kts 232°
2026-05-05 08:18 35.76661 -12.79909 33161 ft 411 kts 232°
2026-05-05 08:18 35.72954 -12.85285 33154 ft 411 kts 232°
2026-05-05 08:19 35.69267 -12.90622 33160 ft 411 kts 232°
2026-05-05 08:19 35.65564 -12.95975 33161 ft 411 kts 232°
2026-05-05 08:20 35.61852 -13.01332 33162 ft 411 kts 232°
2026-05-05 08:20 35.58133 -13.06691 33161 ft 411 kts 232°
2026-05-05 08:21 35.54411 -13.12045 33159 ft 412 kts 232°
2026-05-05 08:21 35.50707 -13.17366 33161 ft 412 kts 232°
2026-05-05 08:22 35.46979 -13.22712 33157 ft 412 kts 232°
2026-05-05 08:22 35.43242 -13.28065 33159 ft 413 kts 232°
2026-05-05 08:23 35.39498 -13.33417 33160 ft 413 kts 232°
2026-05-05 08:23 35.35775 -13.38732 33156 ft 413 kts 232°
2026-05-05 08:24 35.32013 -13.44093 33154 ft 414 kts 232°
2026-05-05 08:24 35.28257 -13.49438 33159 ft 414 kts 232°
2026-05-05 08:25 35.24520 -13.54748 33157 ft 414 kts 232°
2026-05-05 08:25 35.20760 -13.60083 33158 ft 414 kts 231°
2026-05-05 08:26 35.16989 -13.65424 33159 ft 414 kts 231°
2026-05-05 08:26 35.13214 -13.70762 33161 ft 415 kts 231°
2026-05-05 08:27 35.09465 -13.76057 33160 ft 415 kts 231°
2026-05-05 08:27 35.05680 -13.81394 33152 ft 415 kts 231°
2026-05-05 08:28 35.01893 -13.86725 33158 ft 415 kts 231°
2026-05-05 08:28 34.98101 -13.92055 33149 ft 415 kts 231°
2026-05-05 08:29 34.94306 -13.97381 33156 ft 416 kts 231°
2026-05-05 08:30 34.88625 -14.05339 33158 ft 416 kts 231°
2026-05-05 08:30 34.84823 -14.10654 33151 ft 416 kts 231°
2026-05-05 08:31 34.81655 -14.15077 33162 ft 417 kts 231°
2026-05-05 08:31 34.77843 -14.20393 33163 ft 417 kts 231°
2026-05-05 08:32 34.74022 -14.25711 33148 ft 417 kts 231°
2026-05-05 08:32 34.70187 -14.31042 33150 ft 418 kts 231°
2026-05-05 08:33 34.66377 -14.36329 33143 ft 418 kts 231°
2026-05-05 08:33 34.62541 -14.41645 33155 ft 418 kts 231°
2026-05-05 08:34 34.58699 -14.46961 33154 ft 418 kts 230°
2026-05-05 08:34 34.54938 -14.52154 33147 ft 405 kts 230°
2026-05-05 08:35 34.51235 -14.57264 33160 ft 402 kts 230°
2026-05-05 08:35 34.47541 -14.62355 33155 ft 402 kts 230°
2026-05-05 08:36 34.43868 -14.67409 33155 ft 402 kts 230°
2026-05-05 08:36 34.40172 -14.72486 33150 ft 402 kts 230°
2026-05-05 08:36 34.38300 -14.75001 33012 ft 400 kts 229°
2026-05-05 08:37 34.36400 -14.77430 32716 ft 393 kts 228°
2026-05-05 08:37 34.34512 -14.79794 32452 ft 386 kts 227°
2026-05-05 08:37 34.32653 -14.82112 32188 ft 379 kts 227°
2026-05-05 08:37 34.30831 -14.84388 31928 ft 373 kts 227°
2026-05-05 08:38 34.29067 -14.86600 31670 ft 367 kts 228°
2026-05-05 08:38 34.27310 -14.88808 31404 ft 360 kts 227°
2026-05-05 08:38 34.25586 -14.90979 31164 ft 356 kts 227°
2026-05-05 08:38 34.23881 -14.93128 30922 ft 352 kts 227°
2026-05-05 08:39 34.22185 -14.95266 30678 ft 353 kts 227°
2026-05-05 08:39 34.20473 -14.97426 30450 ft 357 kts 227°
2026-05-05 08:39 34.18751 -14.99596 30207 ft 358 kts 227°
2026-05-05 08:39 34.17057 -15.01728 29917 ft 356 kts 227°
2026-05-05 08:40 34.15345 -15.03881 29637 ft 354 kts 227°
2026-05-05 08:40 34.13641 -15.06023 29366 ft 352 kts 227°
2026-05-05 08:40 34.11947 -15.08150 29089 ft 351 kts 227°
2026-05-05 08:40 34.10257 -15.10273 28818 ft 350 kts 227°
2026-05-05 08:41 34.08562 -15.12400 28548 ft 349 kts 227°
2026-05-05 08:41 34.06877 -15.14513 28286 ft 349 kts 227°
2026-05-05 08:41 34.05217 -15.16594 28023 ft 348 kts 227°
2026-05-05 08:41 34.03534 -15.18703 27767 ft 348 kts 227°
2026-05-05 08:42 34.01851 -15.20809 27497 ft 348 kts 227°
2026-05-05 08:42 34.00175 -15.22907 27242 ft 347 kts 227°
2026-05-05 08:42 33.98495 -15.25006 26987 ft 347 kts 227°
2026-05-05 08:42 33.96819 -15.27101 26743 ft 346 kts 227°
2026-05-05 08:43 33.95150 -15.29186 26489 ft 346 kts 227°
2026-05-05 08:43 33.93493 -15.31253 26247 ft 346 kts 227°
2026-05-05 08:43 33.91818 -15.33343 26005 ft 345 kts 227°
2026-05-05 08:43 33.90148 -15.35425 25764 ft 345 kts 227°
2026-05-05 08:44 33.88483 -15.37499 25527 ft 345 kts 228°
2026-05-05 08:44 33.86813 -15.39578 25281 ft 344 kts 228°
2026-05-05 08:44 33.85149 -15.41648 25040 ft 343 kts 228°
2026-05-05 08:44 33.83491 -15.43711 24817 ft 342 kts 228°
2026-05-05 08:45 33.81831 -15.45774 24581 ft 342 kts 228°
2026-05-05 08:45 33.80200 -15.47800 24346 ft 341 kts 228°
2026-05-05 08:45 33.78554 -15.49843 24111 ft 339 kts 228°
2026-05-05 08:45 33.76917 -15.51874 23873 ft 337 kts 228°
2026-05-05 08:46 33.75289 -15.53893 23628 ft 334 kts 228°
2026-05-05 08:46 33.73675 -15.55892 23352 ft 332 kts 228°
2026-05-05 08:46 33.72072 -15.57879 23084 ft 330 kts 227°
2026-05-05 08:46 33.70472 -15.59859 22814 ft 328 kts 227°
2026-05-05 08:47 33.68908 -15.61795 22556 ft 327 kts 227°
2026-05-05 08:47 33.67326 -15.63751 22306 ft 326 kts 227°
2026-05-05 08:47 33.65747 -15.65703 22039 ft 325 kts 227°
2026-05-05 08:47 33.64168 -15.67654 21789 ft 324 kts 227°
2026-05-05 08:48 33.62594 -15.69598 21544 ft 324 kts 227°
2026-05-05 08:48 33.61022 -15.71538 21298 ft 324 kts 227°
2026-05-05 08:48 33.59466 -15.73458 21049 ft 324 kts 227°
2026-05-05 08:48 33.57889 -15.75401 20782 ft 324 kts 227°
2026-05-05 08:49 33.56326 -15.77325 20543 ft 321 kts 227°
2026-05-05 08:49 33.54770 -15.79216 20276 ft 317 kts 226°
2026-05-05 08:49 33.53199 -15.81069 19973 ft 315 kts 226°
2026-05-05 08:49 33.51631 -15.82901 19655 ft 314 kts 226°
2026-05-05 08:50 33.50085 -15.84703 19341 ft 313 kts 226°
2026-05-05 08:50 33.48525 -15.86523 19021 ft 312 kts 226°
2026-05-05 08:50 33.46970 -15.88341 18697 ft 312 kts 226°
2026-05-05 08:50 33.45420 -15.90153 18362 ft 311 kts 226°
2026-05-05 08:51 33.43869 -15.91965 17995 ft 311 kts 226°
2026-05-05 08:51 33.42319 -15.93776 17651 ft 310 kts 226°
2026-05-05 08:51 33.40799 -15.95552 17317 ft 308 kts 226°
2026-05-05 08:51 33.39268 -15.97341 16994 ft 307 kts 226°
2026-05-05 08:52 33.37741 -15.99125 16675 ft 306 kts 226°
2026-05-05 08:52 33.36236 -16.00881 16358 ft 299 kts 226°
2026-05-05 08:52 33.34766 -16.02595 16043 ft 291 kts 226°
2026-05-05 08:52 33.33336 -16.04263 15743 ft 283 kts 226°
2026-05-05 08:53 33.31945 -16.05887 15482 ft 277 kts 225°
2026-05-05 08:53 33.30558 -16.07504 15115 ft 280 kts 225°
2026-05-05 08:53 33.29151 -16.09146 14738 ft 282 kts 225°
2026-05-05 08:53 33.27768 -16.10756 14361 ft 280 kts 225°
2026-05-05 08:54 33.26378 -16.12375 13985 ft 277 kts 225°
2026-05-05 08:54 33.25007 -16.13971 13565 ft 274 kts 225°
2026-05-05 08:54 33.23642 -16.15560 13130 ft 272 kts 225°
2026-05-05 08:54 33.22295 -16.17125 12719 ft 269 kts 224°
2026-05-05 08:55 33.20956 -16.18680 12306 ft 267 kts 224°
2026-05-05 08:55 33.19628 -16.20222 11912 ft 266 kts 224°
2026-05-05 08:55 33.18301 -16.21761 11508 ft 265 kts 224°
2026-05-05 08:55 33.16979 -16.23296 11121 ft 265 kts 224°
2026-05-05 08:56 33.15653 -16.24832 10734 ft 266 kts 224°
2026-05-05 08:56 33.14348 -16.26347 10358 ft 265 kts 224°
2026-05-05 08:56 33.13031 -16.27874 9978 ft 263 kts 223°
2026-05-05 08:56 33.11723 -16.29390 9551 ft 262 kts 223°
2026-05-05 08:57 33.10414 -16.30907 9145 ft 261 kts 223°
2026-05-05 08:57 33.09111 -16.32415 8729 ft 260 kts 224°
2026-05-05 08:57 33.07812 -16.33917 8324 ft 259 kts 224°
2026-05-05 08:57 33.06522 -16.35409 7928 ft 258 kts 223°
2026-05-05 08:58 33.05235 -16.36898 7526 ft 257 kts 223°
2026-05-05 08:58 33.03951 -16.38381 7136 ft 257 kts 223°
2026-05-05 08:58 33.02670 -16.39860 6744 ft 255 kts 223°
2026-05-05 08:58 33.01417 -16.41307 6356 ft 253 kts 223°
2026-05-05 08:59 33.00161 -16.42756 5951 ft 252 kts 222°
2026-05-05 08:59 32.98891 -16.44222 5581 ft 256 kts 222°
2026-05-05 08:59 32.97618 -16.45690 5149 ft 253 kts 222°
2026-05-05 08:59 32.96340 -16.47173 4911 ft 263 kts 220°
2026-05-05 09:00 32.94990 -16.48720 4460 ft 276 kts 222°
2026-05-05 09:00 32.93577 -16.50339 4055 ft 286 kts 221°
2026-05-05 09:00 32.92146 -16.51961 3689 ft 293 kts 219°
2026-05-05 09:00 32.90609 -16.53606 3328 ft 296 kts 219°
2026-05-05 09:01 32.89076 -16.55230 3120 ft 291 kts 218°
2026-05-05 09:01 32.87583 -16.56816 3012 ft 285 kts 220°
2026-05-05 09:01 32.86151 -16.58337 3015 ft 274 kts 219°
2026-05-05 09:01 32.84649 -16.59613 3026 ft 259 kts 204°
2026-05-05 09:02 32.83012 -16.60476 2912 ft 258 kts 200°
2026-05-05 09:02 32.81364 -16.61308 2879 ft 257 kts 199°
2026-05-05 09:02 32.79735 -16.62136 2789 ft 250 kts 200°
2026-05-05 09:02 32.78162 -16.62943 2711 ft 240 kts 199°
2026-05-05 09:03 32.76665 -16.63715 2640 ft 228 kts 201°
2026-05-05 09:03 32.75256 -16.64445 2577 ft 215 kts 201°
2026-05-05 09:03 32.73916 -16.65141 2605 ft 205 kts 201°
2026-05-05 09:03 32.72674 -16.65786 2546 ft 201 kts 201°
2026-05-05 09:04 32.71440 -16.66426 2527 ft 204 kts 201°
2026-05-05 09:04 32.70108 -16.67120 2462 ft 212 kts 201°
2026-05-05 09:04 32.68757 -16.67824 2402 ft 211 kts 201°
2026-05-05 09:04 32.67445 -16.68507 2317 ft 200 kts 201°
2026-05-05 09:05 32.66201 -16.69155 2240 ft 191 kts 201°
2026-05-05 09:05 32.64994 -16.69784 2021 ft 186 kts 202°
2026-05-05 09:05 32.64027 -16.70725 1998 ft 181 kts 239°
2026-05-05 09:05 32.63478 -16.72049 2004 ft 179 kts 240°
2026-05-05 09:06 32.62908 -16.73365 2003 ft 178 kts 240°
2026-05-05 09:06 32.62371 -16.74618 1980 ft 168 kts 241°
2026-05-05 09:06 32.61858 -16.75822 1999 ft 163 kts 240°
2026-05-05 09:06 32.61345 -16.77024 2006 ft 166 kts 242°
2026-05-05 09:07 32.60920 -16.78279 1984 ft 164 kts 268°
2026-05-05 09:07 32.61392 -16.79415 2030 ft 161 kts 325°
2026-05-05 09:07 32.62438 -16.79878 2018 ft 163 kts 353°
2026-05-05 09:07 32.63446 -16.80435 1769 ft 158 kts 322°
2026-05-05 09:08 32.64426 -16.80896 1399 ft 154 kts
2026-05-05 09:08 32.65472 -16.80726 1061 ft 151 kts
2026-05-05 09:08 32.66497 -16.80608 919 ft 151 kts 15°
2026-05-05 09:08 32.67450 -16.80060 610 ft 156 kts 37°
2026-05-05 09:09 32.68272 -16.79233 390 ft 152 kts 42°
2026-05-05 09:09 32.69000 -16.78367 207 ft 145 kts 46°
2026-05-05 09:09 32.69587 -16.77686 175 ft 69 kts 45°
2026-05-05 09:09 32.69697 -16.77556 179 ft 0 kts 45°
2026-05-05 09:10 32.69707 -16.77544 179 ft 7 kts 45°
2026-05-05 09:10 32.69774 -16.77465 182 ft 17 kts 45°
2026-05-05 09:10 32.69854 -16.77368 186 ft 16 kts 45°
2026-05-05 09:10 32.69930 -16.77278 192 ft 13 kts 45°
2026-05-05 09:11 32.69955 -16.77203 187 ft 9 kts 115°
2026-05-05 09:11 32.69899 -16.77178 186 ft 10 kts 180°
2026-05-05 09:11 32.69821 -16.77195 181 ft 13 kts 218°
2026-05-05 09:11 32.69754 -16.77282 175 ft 17 kts 226°
2026-05-05 09:12 32.69693 -16.77358 168 ft 0 kts 226°
2026-05-05 09:12 32.69690 -16.77362 168 ft 1 kts 226°
2026-05-05 09:12 32.69683 -16.77371 168 ft 1 kts 226°
2026-05-05 09:12 32.69670 -16.77386 168 ft 6 kts 225°
2026-05-05 09:13 32.69625 -16.77441 168 ft 10 kts 225°
2026-05-05 09:13 32.69588 -16.77485 168 ft 0 kts 225°
2026-05-05 09:13 32.69587 -16.77485 168 ft 2 kts 222°
2026-05-05 09:13 32.69552 -16.77476 168 ft 7 kts 144°
2026-05-05 09:14 32.69522 -16.77446 168 ft 0 kts 138°
2026-05-05 09:14 32.69518 -16.77442 168 ft 2 kts 137°
2026-05-05 09:14 32.69515 -16.77438 168 ft 0 kts 138°
2026-05-05 09:14 32.69513 -16.77436 168 ft 0 kts 138°